User: anonymous   Login
Location: Unspecified
(0.0000°N, 0.0000°E)
Time: 21:41:07
(UTC+00:00)
Language:

Nimbus 4 - Orbit

View from above orbital plane
View from above orbital plane
View from above satellite
View from above satellite

Ground track
Ground track

The orbit data is extracted from the following two-line orbital elements,

1  4362U 70025A   17083.87106497 -.00000047 +00000-0 -34684-5 0  9993
2  4362 100.0244 348.6700 0006873 292.9273 108.0391 13.44584235303753
Epoch (UTC): 24 March 2017 20:54:20
Eccentricity: 0.0006873
inclination: 100.0244°
perigee height: 1087 km
apogee height: 1097 km
right ascension of ascending node: 348.6700°
argument of perigee: 292.9273°
revolutions per day: 13.44584235
mean anomaly at epoch: 108.0391°
orbit number at epoch: 30375

The dashed part of the orbit path shows where the satellite is in the earth's shadow,  

DLR